This is the latest recevied weather packets stored in our database for station/object PY5KT-13. If no packets are shown the sender has not sent any weather packets the latest 10 day(s).
| Time | Temp. | Humidity | Pressure | Rain* | Wind** | Luminosity | Snow |
|---|---|---|---|---|---|---|---|
| 1777553190 | 16.11° C | 94% | 1021.1 hPa | 0 mm | - | 88 W/m² | - |
| 1777552888 | 16.11° C | 96% | 1020.9 hPa | 0 mm | - | 88 W/m² | - |
| 1777552586 | 16.11° C | 97% | 1020.8 hPa | 0 mm | - | 91 W/m² | - |
| 1777552283 | 16.11° C | 98% | 1020.8 hPa | 0 mm | - | 73 W/m² | - |
| 1777551980 | 16.11° C | 99% | 1020.8 hPa | 0 mm | - | 95 W/m² | - |
| 1777551679 | 15.56° C | 99% | 1020.8 hPa | 0 mm | - | 81 W/m² | - |
| 1777551377 | 15.56° C | 99% | 1020.8 hPa | 0 mm | - | 71 W/m² | - |
| 1777551074 | 15.56° C | 99% | 1020.7 hPa | 0 mm | - | 63 W/m² | - |
| 1777550772 | 15° C | 99% | 1020.7 hPa | 0 mm | - | 60 W/m² | - |
| 1777550471 | 15° C | 99% | 1020.7 hPa | 0 mm | - | 56 W/m² | - |
| 1777550169 | 15° C | 99% | 1020.7 hPa | 0 mm | - | 51 W/m² | - |
| 1777549866 | 15° C | 99% | 1020.6 hPa | 0 mm | - | 42 W/m² | - |
| 1777549564 | 15° C | 99% | 1020.6 hPa | 0 mm | - | 31 W/m² | - |
| 1777549261 | 15° C | 99% | 1020.5 hPa | 0 mm | - | 36 W/m² | - |
| 1777548958 | 15° C | 99% | 1020.4 hPa | 0 mm | - | 28 W/m² | - |
| 1777548656 | 15° C | 99% | 1020.3 hPa | 0 mm | - | 41 W/m² | - |
| 1777548354 | 15° C | 99% | 1020.4 hPa | 0 mm | - | 36 W/m² | - |
| 1777548052 | 15° C | 99% | 1020.3 hPa | 0 mm | - | 40 W/m² | - |
| 1777547750 | 15° C | 99% | 1020.1 hPa | 0 mm | - | 42 W/m² | - |
| 1777547448 | 15° C | 99% | 1020 hPa | 0 mm | - | 41 W/m² | - |
| 1777547146 | 15° C | 99% | 1020 hPa | 0 mm | - | 38 W/m² | - |
| 1777546845 | 15° C | 99% | 1019.9 hPa | 0 mm | - | 30 W/m² | - |
| 1777546543 | 15° C | 99% | 1020 hPa | 0 mm | - | 21 W/m² | - |
| 1777546241 | 15° C | 99% | 1020 hPa | 0 mm | - | 17 W/m² | - |
| 1777545939 | 15° C | 99% | 1019.9 hPa | 0 mm | - | 15 W/m² | - |
* Rain latest hour (hover to see other rain measurements)
** Current wind speed in m/s (hover to see current wind gust speed)